DW5678 Kavala GR current weather conditions

sailwx.info

Wind from 036

Air temperature 10.6° C
Dewpoint 9.1° C

Last reported at 2019-Dec-13 01:48 UTC.
Time now 2019-Dec-13 02:38 UTC

Location: N 40°56' E 024°24'.
View on Google Maps.

See reports from other nearby stations

  
Tides and Currents Weather Stations Pressure Air Temp Water Temp Dewpoint Dewpoint Depression Visibility Wind Speed Wind Dir Waves Ship Positions
date/time (UTC)wind fromknots sea level pressurealtimeterstation pressurevisibilityair tempwater tempwave heightnotes
2019-Dec-13 01:48 036 10.6
2019-Dec-13 01:38 036 10.0
2019-Dec-13 01:28 036 10.6
2019-Dec-13 01:18 036 10.6
2019-Dec-13 01:08 036 10.0
2019-Dec-13 00:58 036 10.6
2019-Dec-13 00:48 048 0 gusting 1 10.6
2019-Dec-13 00:38 048 10.0
2019-Dec-13 00:28 048 10.0
2019-Dec-13 00:18 048 10.6
2019-Dec-13 00:08 030 0 gusting 2 10.0
2019-Dec-12 23:58 043 10.0
2019-Dec-12 23:48 036 10.6
2019-Dec-12 23:38 044 2 gusting 4 10.6
2019-Dec-12 23:28 040 1 gusting 5 10.6
2019-Dec-12 23:18 037 0 gusting 4 10.6
2019-Dec-12 23:08 003 0 gusting 6 10.6
2019-Dec-12 22:58 045 1 gusting 6 10.6
2019-Dec-12 22:48 040 2 gusting 5 10.6
2019-Dec-12 22:38 022 0 gusting 2 10.6
2019-Dec-12 22:28 015 10.6
2019-Dec-12 22:18 002 10.6
2019-Dec-12 22:08 242 1 gusting 4 10.6
2019-Dec-12 21:58 287 0 gusting 2 11.1
2019-Dec-12 21:48 276 0 gusting 4 10.6
2019-Dec-12 21:38 288 2 gusting 4 11.1
2019-Dec-12 21:28 282 2 gusting 4 11.1
2019-Dec-12 21:18 043 11.1
2019-Dec-12 21:08 043 11.1
2019-Dec-12 20:58 043 11.1
2019-Dec-12 20:48 043 11.1
2019-Dec-12 20:38 039 11.1
2019-Dec-12 20:28 039 11.1
2019-Dec-12 20:18 040 11.1
2019-Dec-12 20:08 040 11.7
2019-Dec-12 19:58 040 11.7
2019-Dec-12 19:48 029 0 gusting 5 11.7
2019-Dec-12 19:38 049 1 gusting 5 11.7
2019-Dec-12 19:28 055 1 gusting 5 11.7
2019-Dec-12 19:18 046 3 gusting 5 11.7
2019-Dec-12 19:08 053 2 gusting 6 11.7
2019-Dec-12 18:58 039 4 gusting 6 11.7
2019-Dec-12 18:48 035 0 gusting 6 11.7
2019-Dec-12 18:38 033 0 gusting 5 11.7
2019-Dec-12 18:28 043 2 gusting 5 11.7
2019-Dec-12 18:18 042 4 gusting 6 11.7
2019-Dec-12 18:08 033 3 gusting 6 11.7
2019-Dec-12 17:58 063 1 gusting 4 11.1
2019-Dec-12 17:48 042 2 gusting 5 11.1
2019-Dec-12 17:38 044 2 gusting 5 11.1
2019-Dec-12 17:28 049 1 gusting 5 11.1
2019-Dec-12 17:18 048 1 gusting 6 11.1
2019-Dec-12 17:08 030 1 gusting 6 11.1
2019-Dec-12 16:58 049 1 gusting 6 11.1
2019-Dec-12 16:48 040 2 gusting 5 11.1
2019-Dec-12 16:38 036 1 gusting 5 11.1
2019-Dec-12 16:28 043 0 gusting 2 11.1
2019-Dec-12 16:18 032 0 gusting 4 11.1
2019-Dec-12 16:08 348 2 gusting 6 11.1
2019-Dec-12 15:58 021 0 gusting 2 11.1
2019-Dec-12 15:48 346 0 gusting 5 10.6
2019-Dec-12 15:38 340 4 gusting 7 10.6
2019-Dec-12 15:28 016 11.1
2019-Dec-12 15:18 348 2 gusting 6 11.1
2019-Dec-12 15:08 017 1 gusting 6 11.1
2019-Dec-12 14:58 322 1 gusting 6 11.1
2019-Dec-12 14:48 325 2 gusting 6 11.1
2019-Dec-12 14:38 007 2 gusting 6 11.7
2019-Dec-12 14:28 11.7
2019-Dec-12 14:18 339 1 gusting 4 11.7
2019-Dec-12 14:08 355 11.7
2019-Dec-12 13:58 355 0 gusting 5 11.7
2019-Dec-12 13:48 051 12.2
2019-Dec-12 13:38 051 0 gusting 4 12.2
2019-Dec-12 13:28 077 11.7
2019-Dec-12 13:18 200 11.7
2019-Dec-12 13:08 067 11.7
2019-Dec-12 12:58 088 12.2
2019-Dec-12 12:48 052 12.2
2019-Dec-12 12:38 057 12.2
2019-Dec-12 12:28 123 0 gusting 4 12.2
2019-Dec-12 12:18 077 12.2
2019-Dec-12 12:08 044 4 gusting 6 12.2
2019-Dec-12 11:58 054 0 gusting 7 12.2
2019-Dec-12 11:48 037 0 gusting 5 12.2
2019-Dec-12 11:38 052 3 gusting 7 12.2
2019-Dec-12 11:28 043 1 gusting 6 12.2
2019-Dec-12 11:18 059 1 gusting 6 12.2
2019-Dec-12 11:08 051 0 gusting 6 12.2
2019-Dec-12 10:58 080 0 gusting 5 11.7
2019-Dec-12 10:48 053 2 gusting 6 11.7
2019-Dec-12 10:38 048 1 gusting 5 11.7
2019-Dec-12 10:28 032 1 gusting 4 11.7
2019-Dec-12 10:18 063 11.7
2019-Dec-12 10:08 113 11.7
2019-Dec-12 09:58 140 11.7
2019-Dec-12 09:48 094 11.7
2019-Dec-12 09:38 094 11.7
2019-Dec-12 09:28 094 11.7
2019-Dec-12 09:18 088 11.7
2019-Dec-12 09:08 066 0 gusting 2 11.7
2019-Dec-12 08:58 038 11.7
2019-Dec-12 08:48 038 11.7
2019-Dec-12 08:38 038 11.1
2019-Dec-12 08:28 038 11.1
2019-Dec-12 08:18 038 0 gusting 4 11.1
2019-Dec-12 08:08 038 0 gusting 2 10.6
2019-Dec-12 07:58 005 10.6
2019-Dec-12 07:48 309 10.6
2019-Dec-12 07:38 306 10.6
2019-Dec-12 07:28 305 10.0
2019-Dec-12 07:18 355 10.6
2019-Dec-12 07:08 355 10.0
2019-Dec-12 06:58 355 10.0
2019-Dec-12 06:48 10.0
2019-Dec-12 06:38 339 0 gusting 4 9.4
2019-Dec-12 06:28 306 0 gusting 2 9.4
2019-Dec-12 06:18 284 9.4
2019-Dec-12 06:08 273 1 gusting 6 9.4
2019-Dec-12 05:58 293 0 gusting 4 9.4
2019-Dec-12 05:48 333 0 gusting 6 9.4
2019-Dec-12 05:38 280 0 gusting 5 9.4
2019-Dec-12 05:28 328 9.4
2019-Dec-12 05:18 288 9.4
2019-Dec-12 05:08 288 9.4
2019-Dec-12 04:58 287 9.4
2019-Dec-12 04:48 331 10.0
2019-Dec-12 04:38 331 10.0
2019-Dec-12 04:28 319 10.0
2019-Dec-12 04:18 298 10.0
2019-Dec-12 04:08 262 0 gusting 6 10.0
2019-Dec-12 03:58 284 1 gusting 4 10.0
2019-Dec-12 03:48 090 0 gusting 2 10.0
2019-Dec-12 03:38 090 10.6
2019-Dec-12 03:28 086 10.6
2019-Dec-12 03:18 199 10.6
2019-Dec-12 03:08 053 10.6
2019-Dec-12 02:58 024 0 gusting 6 10.6
2019-Dec-12 02:48 059 1 gusting 5 10.6
2019-Dec-12 02:38 057 1 gusting 6 10.6
2019-Dec-12 02:28 016 0 gusting 7 11.1
2019-Dec-12 02:18 049 0 gusting 4 11.1
2019-Dec-12 02:08 051 11.1
2019-Dec-12 01:58 033 1 gusting 6 11.1
2019-Dec-12 01:48 103 0 gusting 5 11.1
2019-Dec-12 01:38 068 11.1
2019-Dec-12 01:28 040 0 gusting 6 11.1
2019-Dec-12 01:18 044 1 gusting 6 11.1
2019-Dec-12 01:08 053 1 gusting 5 11.1
2019-Dec-12 00:58 094 2 gusting 6 11.1
2019-Dec-12 00:48 032 2 gusting 6 11.1
2019-Dec-12 00:38 041 1 gusting 5 11.1
2019-Dec-12 00:28 051 0 gusting 6 11.1
2019-Dec-12 00:18 036 1 gusting 4 11.1
2019-Dec-12 00:08 042 0 gusting 1 11.1
2019-Dec-11 23:58 032 2 gusting 5 11.1
2019-Dec-11 23:48 042 11.1
2019-Dec-11 23:38 052 11.1
2019-Dec-11 23:28 052 0 gusting 2 11.1
2019-Dec-11 23:18 065 1 gusting 4 11.1
2019-Dec-11 23:08 094 11.1
2019-Dec-11 22:58 075 1 gusting 6 11.1
2019-Dec-11 22:48 033 0 gusting 6 11.1
2019-Dec-11 22:38 061 3 gusting 8 11.1
2019-Dec-11 22:28 032 4 gusting 6 11.1
2019-Dec-11 22:18 055 11.1
2019-Dec-11 22:08 039 0 gusting 2 11.1
2019-Dec-11 21:58 030 1 gusting 5 10.6
2019-Dec-11 21:48 022 10.6
2019-Dec-11 21:38 022 10.6
2019-Dec-11 21:28 009 0 gusting 11 10.6
2019-Dec-11 21:18 013 10.6
2019-Dec-11 21:08 064 1 gusting 5 11.1
2019-Dec-11 20:58 033 4 gusting 6 11.1
2019-Dec-11 20:48 050 4 gusting 6 11.1
2019-Dec-11 20:38 043 0 gusting 4 11.1
2019-Dec-11 20:28 049 0 gusting 5 11.1
2019-Dec-11 20:18 036 0 gusting 2 11.1
2019-Dec-11 20:08 040 10.6
2019-Dec-11 19:58 040 11.1
2019-Dec-11 19:48 036 0 gusting 6 11.1
2019-Dec-11 19:38 050 1 gusting 6 11.1
2019-Dec-11 19:28 037 1 gusting 7 11.1
2019-Dec-11 19:18 055 0 gusting 4 11.1
2019-Dec-11 19:08 038 1 gusting 8 11.1
2019-Dec-11 18:58 022 5 gusting 6 10.6
2019-Dec-11 18:48 032 0 gusting 6 10.6
2019-Dec-11 18:38 040 1 gusting 7 10.6
2019-Dec-11 18:28 015 0 gusting 6 10.6
2019-Dec-11 18:18 035 1 gusting 4 10.6
2019-Dec-11 18:08 056 10.6
2019-Dec-11 17:58 022 0 gusting 5 10.6
2019-Dec-11 17:48 029 2 gusting 7 10.6
2019-Dec-11 17:38 041 2 gusting 7 10.0
2019-Dec-11 17:28 033 2 gusting 10 10.0
2019-Dec-11 17:18 038 6 gusting 7 10.0
2019-Dec-11 17:08 032 0 gusting 2 10.0
2019-Dec-11 16:58 048 10.0
2019-Dec-11 16:48 038 2 gusting 6 10.0
2019-Dec-11 16:38 027 1 gusting 7 9.4
2019-Dec-11 16:28 013 0 gusting 6 9.4
2019-Dec-11 16:18 039 2 gusting 8 9.4
2019-Dec-11 16:08 005 0 gusting 6 9.4
2019-Dec-11 15:58 019 2 gusting 10 9.4
2019-Dec-11 15:48 355 3 gusting 7 9.4
2019-Dec-11 15:38 019 3 gusting 8 9.4
2019-Dec-11 15:28 023 5 gusting 10 8.9
2019-Dec-11 15:18 036 4 gusting 6 8.9
2019-Dec-11 15:08 039 2 gusting 6 8.9
2019-Dec-11 14:58 029 2 gusting 8 9.4
2019-Dec-11 14:48 065 1 gusting 8 8.9
2019-Dec-11 14:38 027 2 gusting 7 8.9
2019-Dec-11 14:28 020 1 gusting 7 9.4
2019-Dec-11 14:18 034 2 gusting 4 9.4
2019-Dec-11 14:08 057 2 gusting 10 10.0
2019-Dec-11 13:58 048 3 gusting 7 10.0
2019-Dec-11 13:48 028 2 gusting 10 10.0
2019-Dec-11 13:38 033 1 gusting 11 10.0
2019-Dec-11 13:28 045 2 gusting 8 10.0
2019-Dec-11 13:18 128 5 gusting 13 10.0
2019-Dec-11 13:08 083 4 gusting 13 10.6
2019-Dec-11 12:58 036 7 gusting 13 10.6
2019-Dec-11 12:48 049 5 gusting 8 10.0
2019-Dec-11 12:38 053 5 gusting 13 10.0
2019-Dec-11 12:28 040 6 gusting 8 10.6
2019-Dec-11 12:18 055 2 gusting 11 10.6
2019-Dec-11 12:08 005 7 gusting 13 10.6
2019-Dec-11 11:58 062 4 gusting 11 10.6
2019-Dec-11 11:48 117 9 gusting 18 10.0
2019-Dec-11 11:38 032 3 gusting 12 10.0
2019-Dec-11 11:28 041 5 gusting 11 10.0
2019-Dec-11 11:18 070 1 gusting 10 10.0
2019-Dec-11 11:08 015 4 gusting 11 10.0
2019-Dec-11 10:58 060 4 gusting 12 10.0
2019-Dec-11 10:48 047 1 gusting 8 10.0
2019-Dec-11 10:38 060 5 gusting 12 10.6
2019-Dec-11 10:28 061 5 gusting 18 10.6
2019-Dec-11 10:18 048 5 gusting 12 10.0
2019-Dec-11 10:08 039 2 gusting 8 10.0
2019-Dec-11 09:58 038 2 gusting 7 10.0
2019-Dec-11 09:48 036 2 gusting 7 10.6
2019-Dec-11 09:38 061 0 gusting 6 10.6
2019-Dec-11 09:28 034 3 gusting 10 10.6
2019-Dec-11 09:18 068 1 gusting 4 10.6
2019-Dec-11 09:08 041 0 gusting 6 10.6
2019-Dec-11 08:58 040 0 gusting 5 10.6
2019-Dec-11 08:48 052 1 gusting 6 10.6
2019-Dec-11 08:38 047 0 gusting 4 10.6
2019-Dec-11 08:28 050 10.6
2019-Dec-11 08:18 046 2 gusting 5 10.6
2019-Dec-11 08:08 057 0 gusting 6 10.6
2019-Dec-11 07:58 034 0 gusting 2 10.6
2019-Dec-11 07:48 034 10.6
2019-Dec-11 07:38 034 10.6
2019-Dec-11 07:28 057 10.6
2019-Dec-11 07:18 058 0 gusting 4 10.6
2019-Dec-11 07:08 028 10.6
2019-Dec-11 06:58 027 10.6
2019-Dec-11 06:48 027 10.6
2019-Dec-11 06:38 027 10.6
2019-Dec-11 06:28 027 10.6
2019-Dec-11 06:18 027 10.6
2019-Dec-11 06:08 027 10.6
2019-Dec-11 05:58 027 10.6
2019-Dec-11 05:48 027 10.6
2019-Dec-11 05:38 027 10.0
2019-Dec-11 05:28 027 10.0
2019-Dec-11 05:18 027 10.0
2019-Dec-11 05:08 039 0 gusting 2 10.0
2019-Dec-11 04:58 032 0 gusting 4 10.0
2019-Dec-11 04:48 018 2 gusting 6 10.0
2019-Dec-11 04:38 038 3 gusting 6 10.0
2019-Dec-11 04:28 047 2 gusting 6 10.0
2019-Dec-11 04:18 040 2 gusting 6 10.0
2019-Dec-11 04:08 031 2 gusting 5 10.0
2019-Dec-11 03:58 063 0 gusting 6 10.0
2019-Dec-11 03:48 049 2 gusting 5 10.0
2019-Dec-11 03:38 037 10.0
2019-Dec-11 03:28 012 0 gusting 2 10.6
2019-Dec-11 03:18 053 0 gusting 2 10.6
2019-Dec-11 03:08 044 10.6
2019-Dec-11 02:58 051 10.6
2019-Dec-11 02:48 032 10.6
2019-Dec-11 02:38 025 4 gusting 10 11.1
2019-Dec-11 02:28 037 2 gusting 7 11.1
2019-Dec-11 02:18 046 4 gusting 10 11.1
2019-Dec-11 02:08 059 3 gusting 6 11.1